STARLINK-38243, 100253

Orbit data source: Space-Track

STARLINK-38243, 100253 is a payload satellite owned by SpaceX/Seattle (US) in SSO that was launched on Sat, 08 Aug 2026 UTC launched from the Air Force Western Test Range (AFWTR). Payload-class satellites include a variety of spacecraft equipped with specific instruments for various scientific and technological missions. These include communications satellites like Starlink; space stations such as the ISS; scientific satellites like the Hubble; Earth observation satellites from companies like Planet Labs, Umbra, and HawkEye 360; GPS; miniature CubeSats for education and research; and military/defense satellites.

Loading next visibility...
Identifier
100253, 2026-181H
Orbit
SSO
Country
Flag of USUS
Related business
Manufacturer
SpaceX/Seattle
Mission
Operational spacecraft
Bus & Motor
STARLINK V2MO, Unknown motor
Mass
575 kg wet, ~530 kg dry
Launch date (UTC)
2026-08-08 (1 month ago)
Launch vehicle
Unknown
Launch site
Air Force Western Test Range (AFWTR)
Object type
Payload
Rocket body
Debris
Shape & HBR
BOX + PAN, 17.7 m
Radar Cross Section
RCS unknown

Expand to show TLE details & history
Last TLE update: 6 hours ago

TLE from 6 hours ago
0 STARLINK-38243
1 A0253U 26181H   26249.63131572  .00149399  00000-0  98572-3 0  9998
2 A0253  97.2850 292.4885 0000843 114.7215 245.4138 15.75175259  5231
Epoch: 2026-09-06T15:09Z
TLE epoch observation values (Epoch: 2026-09-06T15:09:05.678Z)
Latitude
-0.00001°
Longitude
79.49118°
Altitude
347.537 km
Speed
7.7 km/s
True Right ascension
19h 29m 57s
True Declination
0° 00' 00"
Sunlit
Object was in full shadow at epoch
Visualization orbit readout
Latitude
Unknown
Longitude
Unknown
Altitude
Unknown
Speed
Unknown
Apparent Right ascension
Unknown
Apparent Declination
Unknown
Sunlit
N/A
Visualization observer readout
Local Sidereal Time
12:50:18
Azimuth
Unknown
Elevation
Unknown
Doppler factor
Unknown
Orbital elements
Apogee altitude
341.586 km
Perigee altitude
340.454 km
Semi-major axis
6,719.157 km
Eccentricity
0.00008
Inclination
97.285°
RAAN
292.4885°
Arg. of periapsis
114.7215°
True anomaly
245.40502°
Mean anomaly
245.4138°
Eccentric anomaly
245.40941°
Mean motion
3.94068 °/min
Orbital period
91.35 mins
BSTAR
0.00098572
Loading maneuver chart data...
Computing Atmospheric mass density...
Loading historical data...
Loading historical data...
Loading historical data...
Loading historical data...
Loading historical data...
Loading historical data...
Loading historical data...

Documentation

Showing up to 5 results
|